Weather in Naha

Japan     26°12′54″N   127°41′30″E
temp.,
°C
wind,
m/s
gust,
m/s
humid.,
%
clouds,
%
prec.,
mm/h
press.,
hPa
HPBL,
m
27 february, sat
sat2700:00+20nnw359214 0.0 1010319
03:00+20nnw358914 0.0 1009339
06:00+20n249071 0.0 1010312
09:00+21ne228475 0.1 1012436
12:00+21sw018255 0.4 1013369
15:00+21sse018477 1.3 1011325
18:00+20nw118765 1.2 101295
21:00+20nw128775 1.3 1014221
28 february, sun
sun2800:00+20wnw238815 0.0 1014222
03:00+19wnw238710 0.0 1014267
06:00+19wnw348538 0.1 1014396
09:00+21w347841 0.1 1016760
12:00+22w34720 0.0 1015686
15:00+22w34700 0.0 1013689
18:00+21wsw22770 0.0 1014366
21:00+19sse11831 0.0 101680
1 march, mon
mon100:00+19s23860 0.0 1016155
03:00+19ssw23872 0.0 1015189
06:00+19ssw258415 0.0 1015285
09:00+21wsw467841 0.1 1017831
12:00+22wsw567470 0.0 1016942
15:00+22wsw567474 0.0 1014970
18:00+21w478020 0.0 1014751
21:00+20w468313 0.0 1015468
2 march, tue
tue200:00+20w478612 0.0 1015467
03:00+20w588413 0.0 1014533
06:00+20wnw69852 0.0 1014682
09:00+20nw798041 0.0 1017884
12:00+20nnw81082100 0.2 1017878
15:00+18n9118096 0.3 1017922
18:00+17n91179100 0.1 10191021
21:00+16n7107894 0.2 1021955
3 march, wed
wed300:00+17nne5876100 0.0 1022786
03:00+16ne467391 0.0 1020645
06:00+16ne687869 0.1 1021706
09:00+17ne577175 0.1 1022727
12:00+18ne456474 0.0 1022894
15:00+19ene456173 0.0 10201206
18:00+18ene578366 0.1 1021679
21:00+18ene698476 0.6 1022672